Stations météo

réclame
Mon MeteoGroup
Biscarosse, France (7503): Température de l'air & dewpoint: 11.10.2017 20:00:00 - 17.10.2017 20:00:00 (CEST)Biscarosse, France (7503): Température de l'air 5cm: 11.10.2017 20:00:00 - 17.10.2017 20:00:00 (CEST)Biscarosse, France (7503): Température de l'air -20cm & Température de l'air -100cm: 11.10.2017 20:00:00 - 17.10.2017 20:00:00 (CEST)Biscarosse, France (7503): Vitesse du vent & gusts: 11.10.2017 20:00:00 - 17.10.2017 20:00:00 (CEST)Biscarosse, France (7503): Direction du vent: 11.10.2017 20:00:00 - 17.10.2017 20:00:00 (CEST)Biscarosse, France (7503): reduced air pressure: 11.10.2017 20:00:00 - 17.10.2017 20:00:00 (CEST)Biscarosse, France (7503): visibility: 11.10.2017 20:00:00 - 17.10.2017 20:00:00 (CEST)Biscarosse, France (7503): Ensoleillement: 11.10.2017 20:00:00 - 17.10.2017 20:00:00 (CEST)Biscarosse, France (7503): Quantités de précipitations: 11.10.2017 20:00:00 - 17.10.2017 20:00:00 (CEST)
Date & Time tt [°C] td [°C] tt 5cm [°C] tt -20cm [°C] tt -100cm [°C] ff [km/h] ff [knt] fx [km/h] fx [knt] dd ppp [hPa] vv [km] sd [min] rr [mm]
17.10.2017 20:00:00 21,8 14,7 20,8 22,9 20,9 4 2 7 4 SE 1014,3 7 0 0,0
17.10.2017 19:00:00 22,6 13,6 21,9 22,8 20,9 4 2 10 6 S 1013,8 6 31 0,0
17.10.2017 18:00:00 25,4 15,4 26,5 22,5 20,9 0 0 10 5 N 1013,8 20 34 0,0
17.10.2017 17:00:00 26,4 14,2 29,3 22,1 21,0 8 5 11 6 SSW 1014,3 15 43 0,0
17.10.2017 16:00:00 25,4 13,6 28,6 21,5 21,0 7 4 14 7 SSW 1014,8 13 34 0,0
17.10.2017 15:00:00 27,0 14,1 30,8 21,0 21,0 9 5 22 12 SSW 1015,3 17 60 0,0
17.10.2017 14:00:00 25,0 14,8 29,4 20,5 20,9 12 6 28 15 SE 1016,1 20 60 0,0
17.10.2017 13:00:00 22,7 16,7 24,1 20,3 21,0 13 7 27 15 ESE 1016,9 19 49 0,0
17.10.2017 12:00:00 20,3 16,3 21,8 20,2 21,0 16 9 39 21 ESE 1017,5 15 57 0,0
17.10.2017 11:00:00 17,5 15,5 18,3 20,3 20,9 7 4 40 22 NW 1018,1 15 60 0,0
17.10.2017 10:00:00 15,9 14,3 15,5 20,5 20,9 20 11 37 20 E 1018,3 10 60 0,0
17.10.2017 09:00:00 15,1 14,1 14,6 20,7 20,9 21 12 38 21 E 1018,4 10 16 0,0
17.10.2017 08:00:00 15,3 14,7 14,8 20,8 20,9 21 11 37 20 E 1018,3 7 0 0,0
17.10.2017 07:00:00 15,9 15,3 15,0 21,0 20,9 20 11 31 17 E 1018,5 1,0 0 0,0
17.10.2017 06:00:00 15,0 14,4 14,5 21,2 20,9 18 10 33 18 E 1019,1 0,4 0 0,0
17.10.2017 05:00:00 14,8 14,2 14,8 21,3 20,9 19 10 33 18 E 1019,7 0,4 0 0,0
17.10.2017 04:00:00 15,4 14,6 15,2 21,6 20,9 6 3 18 10 E 1020,6 0,4 0 0,0
17.10.2017 03:00:00 16,2 15,2 15,5 21,8 20,9 9 5 18 10 ENE 1021,2 0,6 0 0,2
17.10.2017 02:00:00 16,3 15,3 13,9 22,1 20,9 4 2 10 5 ENE 1021,7 6 0 0,0
17.10.2017 01:00:00 15,5 14,2 13,9 22,3 20,8 2 1 5 3 ESE 1022,4 4,6 0 0,0
17.10.2017 00:00:00 16,2 14,7 14,7 22,6 20,8 2 1 9 5 NE 1023,0 6 0 0,0
16.10.2017 23:00:00 16,6 15,1 15,4 22,9 20,8 5 3 10 5 ENE 1023,2 6 0 0,0
16.10.2017 22:00:00 17,5 15,7 16,4 23,1 20,8 7 4 11 6 N 1022,6 8 0 0,0
16.10.2017 21:00:00 18,2 16,0 17,5 23,3 20,8 7 4 22 12 N 1022,7 9 0 0,0
16.10.2017 20:00:00 19,0 16,6 18,5 23,4 20,8 18 10 30 16 N 1022,7 8 0 0,0
16.10.2017 19:00:00 20,1 17,5 19,5 23,3 20,8 20 11 24 13 NNW 1022,2 10 10 0,0
16.10.2017 18:00:00 21,6 17,2 21,8 23,0 20,8 10 6 13 7 WSW 1021,9 19 60 0,0
16.10.2017 17:00:00 25,1 15,1 29,1 22,6 20,8 9 5 13 7 S 1021,6 20 60 0,0
16.10.2017 16:00:00 25,9 15,0 31,7 22,0 20,8 11 6 19 10 SSE 1021,7 20 60 0,0
16.10.2017 15:00:00 26,7 14,5 32,0 21,4 20,8 13 7 16 9 S 1021,7 25 60 0,0
16.10.2017 14:00:00 27,7 13,6 32,6 20,8 20,8 12 7 24 13 S 1021,9 25 60 0,0
16.10.2017 13:00:00 27,1 15,1 28,0 20,4 20,8 14 8 25 13 S 1021,6 20 60 0,0
16.10.2017 12:00:00 24,1 14,8 24,6 20,2 20,8 13 7 33 18 SE 1020,9 20 60 0,0
16.10.2017 11:00:00 21,2 15,1 20,8 20,3 20,8 16 8 33 18 ESE 1020,8 20 60 0,0
16.10.2017 10:00:00 18,6 15,1 17,3 20,5 20,8 15 8 32 17 ESE 1020,5 20 60 0,0
16.10.2017 09:00:00 16,8 14,8 16,2 20,7 20,8 18 10 32 18 ESE 1019,8 20 17 0,0
16.10.2017 08:00:00 16,6 14,8 16,0 20,9 20,8 19 10 35 19 ESE 1019,5 20 0 0,0
16.10.2017 07:00:00 16,6 15,0 16,1 21,1 20,8 20 11 38 21 ESE 1019,2 19 0 0,0
16.10.2017 06:00:00 16,9 14,9 16,4 21,3 20,7 23 12 35 19 E 1019,1 20 0 0,0
16.10.2017 05:00:00 17,3 15,1 16,8 21,5 20,7 20 11 40 22 ESE 1019,2 20 0 0,0
16.10.2017 04:00:00 17,7 15,1 17,1 21,7 20,7 20 11 39 21 ESE 1019,6 20 0 0,0
16.10.2017 03:00:00 18,2 15,3 17,6 21,9 20,7 18 10 36 19 ESE 1020,3 20 0 0,0
16.10.2017 02:00:00 18,8 15,1 18,3 22,1 20,7 21 11 42 23 ESE 1020,3 20 0 0,0
16.10.2017 01:00:00 19,7 15,1 19,2 22,3 20,7 21 11 41 22 ESE 1020,5 20 0 0,0
16.10.2017 00:00:00 20,6 14,9 20,0 22,5 20,7 21 12 43 23 SSE 1020,5 20 0 0,0
15.10.2017 23:00:00 21,8 14,9 21,0 22,7 20,7 21 11 39 21 ESE 1020,5 20 0 0,0
15.10.2017 22:00:00 22,7 14,8 21,9 22,8 20,7 19 10 35 19 SSE 1020,5 20 0 0,0
15.10.2017 21:00:00 23,5 15,0 22,7 22,9 20,7 13 7 26 14 SSE 1020,4 20 0 0,0
15.10.2017 20:00:00 24,4 15,6 23,1 22,9 20,7 10 6 22 12 SSE 1020,4 20 0 0,0
15.10.2017 19:00:00 25,7 15,1 24,7 22,7 20,7 6 4 16 9 SE 1020,2 20 23 0,0
15.10.2017 18:00:00 27,5 14,5 28,0 22,4 20,7 8 5 22 12 SSE 1020,2 20 60 0,0
15.10.2017 17:00:00 28,0 15,0 31,0 21,8 20,7 10 5 24 13 SE 1020,3 20 60 0,0
15.10.2017 16:00:00 28,5 15,8 32,6 21,3 20,7 8 4 18 10 SE 1020,7 20 60 0,0
15.10.2017 15:00:00 27,7 15,4 31,2 20,7 20,7 14 7 27 15 SE 1021,0 20 60 0,0
15.10.2017 14:00:00 26,3 15,4 29,5 20,1 20,7 15 8 27 14 SE 1021,6 20 60 0,0
15.10.2017 13:00:00 24,5 15,4 - - - 11 6 28 15 ESE 1022,1 20 - 0,0
15.10.2017 12:00:00 22,2 15,3 23,2 19,7 20,7 13 7 27 14 ESE 1022,3 20 60 0,0
15.10.2017 11:00:00 19,7 14,7 19,1 19,7 20,7 15 8 29 15 E 1022,3 20 60 0,0
15.10.2017 10:00:00 16,9 13,8 15,7 19,9 20,6 15 8 31 17 ESE 1022,3 20 60 0,0
15.10.2017 09:00:00 15,2 13,2 14,5 20,1 20,6 17 9 29 16 ESE 1021,9 20 18 0,0
15.10.2017 08:00:00 14,8 13,2 14,4 20,3 20,6 16 9 28 15 E 1021,7 20 0 0,0
15.10.2017 07:00:00 15,0 13,2 14,6 20,6 20,6 17 9 31 17 ESE 1021,8 20 0 0,0
15.10.2017 06:00:00 15,4 13,6 15,0 20,8 20,6 16 9 28 15 ESE 1021,5 20 0 0,0
15.10.2017 05:00:00 15,7 13,7 15,2 21,0 20,6 15 8 26 14 SE 1021,5 20 0 0,0
15.10.2017 04:00:00 16,0 13,7 15,5 21,3 20,6 14 7 25 13 SSE 1021,8 20 0 0,0
15.10.2017 03:00:00 16,6 13,7 16,2 21,5 20,6 15 8 28 15 SSE 1021,9 20 0 0,0
15.10.2017 02:00:00 17,7 13,8 17,1 21,7 20,5 15 8 35 19 ESE 1021,9 20 0 0,0
15.10.2017 01:00:00 18,6 13,9 18,0 22,0 20,5 18 10 35 19 ESE 1022,0 20 0 0,0
15.10.2017 00:00:00 19,7 13,2 19,0 22,2 20,5 19 10 36 19 SE 1021,9 20 0 0,0
14.10.2017 23:00:00 19,8 13,3 18,7 22,4 20,5 16 8 30 16 SSE 1022,0 20 0 0,0
14.10.2017 22:00:00 20,0 13,0 18,8 22,7 20,5 3 2 15 8 S 1022,0 20 0 0,0
14.10.2017 21:00:00 19,9 14,5 17,8 22,9 20,5 10 5 14 7 S 1021,9 20 0 0,0
14.10.2017 20:00:00 21,0 14,9 18,5 22,9 20,5 4 2 7 4 SSE 1021,8 20 0 0,0
14.10.2017 19:00:00 23,4 15,4 22,6 22,8 20,5 0 0 24 13 N 1021,4 20 21 0,0
14.10.2017 18:00:00 25,1 15,1 25,4 22,5 20,5 13 7 24 13 SSE 1021,4 19 60 0,0
14.10.2017 17:00:00 25,7 15,1 30,4 22,0 20,5 5 3 15 8 ESE 1021,9 19 60 0,0
14.10.2017 16:00:00 25,7 15,4 31,0 21,4 20,5 8 4 15 8 NNW 1022,3 18 60 0,0
14.10.2017 15:00:00 24,2 15,1 29,3 20,9 20,5 8 5 18 10 SE 1022,7 20 60 0,0
14.10.2017 14:00:00 23,2 15,8 27,9 20,4 20,5 10 5 21 11 ESE 1023,4 17 60 0,0
14.10.2017 13:00:00 22,3 16,1 25,2 20,0 20,5 6 3 20 11 ESE 1024,2 14 60 0,0
14.10.2017 12:00:00 20,1 15,9 20,2 19,9 20,5 11 6 20 11 ESE 1024,6 15 44 0,0
14.10.2017 11:00:00 18,3 15,5 18,7 19,9 20,5 8 5 14 8 SE 1024,8 9 1 0,0
14.10.2017 10:00:00 17,8 15,6 17,9 19,9 20,5 6 3 11 6 SE 1024,7 9 0 -
14.10.2017 09:00:00 17,6 15,8 17,5 20,0 20,5 5 3 12 6 SE 1024,4 9 0 0,0
14.10.2017 08:00:00 17,6 15,8 17,4 20,0 20,5 5 3 14 8 SE 1024,0 10 0 0,0
14.10.2017 07:00:00 17,5 16,2 17,2 20,1 20,5 10 5 15 8 SW 1023,9 8 0 0,0
14.10.2017 06:00:00 17,4 16,3 16,5 20,3 20,4 13 7 18 10 SSW 1024,0 7 0 0,0
14.10.2017 05:00:00 17,7 16,6 16,2 20,4 20,4 13 7 17 9 SSW 1023,9 3,7 0 0,0
14.10.2017 04:00:00 18,1 17,1 17,1 20,6 20,4 13 7 19 10 SSW 1023,9 6 0 0,0
14.10.2017 03:00:00 17,4 16,6 14,2 20,8 20,4 8 5 14 8 SSW 1024,4 2,8 0 0,0
14.10.2017 02:00:00 15,7 13,5 14,2 21,1 20,4 7 4 9 5 SE 1024,6 12 0 0,0
14.10.2017 01:00:00 17,2 14,1 15,3 21,3 20,4 3 2 8 4 E 1024,5 12 0 0,0
14.10.2017 00:00:00 17,2 13,9 15,4 21,6 20,4 6 4 10 6 SSE 1024,5 8 0 0,0
13.10.2017 23:00:00 18,7 13,8 16,5 21,8 20,4 5 3 14 7 N 1024,2 11 0 0,0
13.10.2017 22:00:00 20,1 14,0 17,6 22,0 20,4 5 3 10 5 ENE 1023,9 20 0 0,0
13.10.2017 21:00:00 20,3 14,6 18,5 22,1 20,4 5 3 12 7 E 1023,9 20 0 0,0
13.10.2017 20:00:00 21,5 15,6 19,9 22,1 20,4 6 3 8 4 NE 1023,7 20 2 0,0
13.10.2017 19:00:00 23,5 15,8 22,4 21,9 20,4 5 3 13 7 NE 1023,1 20 35 0,0
13.10.2017 18:00:00 25,5 16,1 25,6 21,6 20,5 5 3 14 8 NE 1023,0 20 60 0,0
13.10.2017 17:00:00 26,2 15,6 30,3 21,0 20,5 7 4 17 9 N 1023,1 20 56 0,0
13.10.2017 16:00:00 24,0 17,5 26,2 20,4 20,5 9 5 13 7 NNW 1023,4 8 51 0,0
13.10.2017 15:00:00 23,3 16,8 27,0 19,6 20,5 10 5 14 8 NNW 1023,7 7 41 0,0
13.10.2017 14:00:00 23,4 16,2 27,0 19,0 20,5 11 6 16 9 NNW 1024,1 9 58 0,0
13.10.2017 13:00:00 22,1 14,2 23,3 18,6 20,5 5 3 13 7 W 1024,4 20 40 0,0
13.10.2017 12:00:00 19,9 14,0 20,0 18,4 20,5 9 5 14 7 E 1024,5 20 40 0,0
13.10.2017 11:00:00 17,4 12,9 17,5 18,4 20,5 8 4 17 9 ESE 1024,3 20 52 0,0
13.10.2017 10:00:00 14,5 11,5 13,7 18,6 20,5 8 4 27 15 E 1024,2 20 60 0,0
13.10.2017 09:00:00 13,1 11,2 12,0 18,8 20,5 15 8 29 16 E 1023,9 20 21 0,0
13.10.2017 08:00:00 12,7 10,8 12,0 19,0 20,5 18 10 32 17 E 1023,7 20 0 0,0
13.10.2017 07:00:00 13,3 11,0 12,6 19,3 20,4 20 11 34 19 SSE 1023,7 20 0 0,0
13.10.2017 06:00:00 14,1 11,4 13,5 19,5 20,4 19 10 30 16 S 1023,7 20 0 0,0
13.10.2017 05:00:00 14,7 11,7 14,0 19,7 20,4 19 10 28 15 S 1023,9 20 0 0,0
13.10.2017 04:00:00 15,4 12,0 14,5 20,0 20,4 19 10 29 16 S 1023,9 20 0 0,0
13.10.2017 03:00:00 15,7 11,9 14,7 20,2 20,4 18 10 28 15 S 1024,1 20 0 0,0
13.10.2017 02:00:00 16,0 12,0 15,2 20,5 20,4 18 10 29 16 S 1024,1 20 0 0,0
13.10.2017 01:00:00 16,2 12,2 15,4 20,8 20,4 17 9 30 16 S 1024,4 20 0 0,0
13.10.2017 00:00:00 16,5 12,5 15,7 21,0 20,4 16 9 29 16 S 1024,6 20 0 0,0
12.10.2017 23:00:00 17,1 12,8 16,3 21,3 20,4 16 9 26 14 S 1024,9 20 0 0,0
12.10.2017 22:00:00 17,2 13,9 16,5 21,5 20,4 14 7 24 13 S 1024,9 20 0 0,0
12.10.2017 21:00:00 18,0 13,9 17,4 21,6 20,4 11 6 21 12 S 1024,8 20 0 0,0
12.10.2017 20:00:00 18,9 13,7 18,2 21,8 20,4 9 5 15 8 SSE 1024,9 20 0 0,0
12.10.2017 19:00:00 20,2 13,4 19,9 21,6 20,4 9 5 19 10 SSE 1024,6 20 23 0,0
12.10.2017 18:00:00 21,7 14,1 22,1 21,3 20,4 11 6 23 12 S 1024,5 20 60 0,0
12.10.2017 17:00:00 22,0 13,4 26,6 20,9 20,4 11 6 27 14 S 1024,8 20 60 0,0
12.10.2017 16:00:00 22,0 13,1 27,1 20,2 20,4 13 7 25 13 S 1025,0 20 60 0,0
12.10.2017 15:00:00 21,7 13,6 24,9 19,7 20,4 14 8 26 14 SSE 1025,6 25 58 0,0
12.10.2017 14:00:00 21,0 13,9 25,4 19,1 20,4 10 5 18 10 E 1026,1 20 58 0,0
12.10.2017 13:00:00 19,5 14,5 24,7 18,7 20,4 8 4 18 10 E 1026,6 20 57 0,0
12.10.2017 12:00:00 18,0 14,1 21,9 18,6 20,4 8 5 16 9 ENE 1027,0 20 60 0,0
12.10.2017 11:00:00 17,2 15,0 18,1 18,6 20,4 9 5 22 12 SE 1026,8 20 60 0,0
12.10.2017 10:00:00 15,4 14,3 14,6 18,7 20,4 9 5 20 11 S 1026,6 15 60 0,0
12.10.2017 09:00:00 14,4 13,6 12,9 18,9 20,4 9 5 20 11 S 1026,2 13 22 0,0
12.10.2017 08:00:00 13,8 12,9 12,3 19,1 20,4 11 6 17 9 S 1025,8 5 0 0,0
12.10.2017 07:00:00 13,7 12,4 12,6 19,3 20,4 8 5 10 6 S 1025,3 8 0 0,0
12.10.2017 06:00:00 14,6 13,0 13,3 19,6 20,4 6 4 9 5 S 1025,2 13 0 0,0
12.10.2017 05:00:00 15,9 13,9 13,8 19,7 20,4 4 2 5 3 SSE 1025,1 14 0 0,0
12.10.2017 04:00:00 15,5 13,9 13,7 20,0 20,4 3 1 12 6 SE 1025,2 12 0 0,0
12.10.2017 03:00:00 15,7 12,8 14,3 20,2 20,4 9 5 16 8 NNW 1025,3 15 0 0,0
12.10.2017 02:00:00 17,1 14,4 14,8 20,4 20,4 13 7 16 9 NNW 1025,0 14 0 0,0
12.10.2017 01:00:00 17,3 14,6 15,4 20,7 20,4 13 7 18 10 NW 1024,7 15 0 0,0
12.10.2017 00:00:00 17,7 15,0 - - - 15 8 21 11 WNW 1024,4 15 - 0,0
11.10.2017 23:00:00 18,0 14,9 16,6 21,1 20,4 18 10 22 12 NW 1024,2 19 0 0,0
11.10.2017 22:00:00 18,1 15,2 16,8 21,4 20,4 19 10 21 12 NW 1023,5 16 0 0,0
11.10.2017 21:00:00 18,3 15,2 17,0 21,5 20,4 16 9 19 11 WNW 1023,0 15 0 0,0
11.10.2017 20:00:00 18,4 15,3 17,5 21,6 20,4 17 9 23 12 WNW 1022,2 17 4 0,0

tt = Température de l'air
td = dewpoint
tt 5cm = Température de l'air 5cm
tt -20cm = Température de l'air -20cm
tt -100cm = Température de l'air -100cm
ff = Vitesse du vent
fx = gusts
dd = Direction du vent
ppp = reduced air pressure
vv = visibility
sd = Ensoleillement
rr = Quantités de précipitations

stations d'obs. à proximité